TimeAST,TemperatureF,Dew PointF,Humidity,Sea Level PressureIn,VisibilityMPH,Wind Direction,Wind SpeedMPH,Gust SpeedMPH,PrecipitationIn,Events,Conditions,WindDirDegrees,DateUTC
12:00 AM,78.8,66.2,65,30.09,6.2,ENE,11.5,-,N/A,,Scattered Clouds,70,2014-01-10 04:00:00
1:00 AM,77.0,66.2,69,30.09,6.2,East,16.1,-,N/A,,Partly Cloudy,80,2014-01-10 05:00:00
2:00 AM,78,67,62,30.07,19,East,10.4,,,,Scattered Clouds,90,2014-01-10 06:00:00
2:00 AM,77.0,68.0,74,30.06,6.2,ENE,12.7,-,N/A,,Partly Cloudy,70,2014-01-10 06:00:00
3:00 AM,77.0,66.2,69,30.04,6.2,East,15.0,-,N/A,,Partly Cloudy,80,2014-01-10 07:00:00
4:00 AM,77.0,66.2,69,30.04,6.2,East,15.0,-,N/A,,Partly Cloudy,80,2014-01-10 08:00:00
5:00 AM,77,67,64,30.04,19,South,16.1,,,,Scattered Clouds,180,2014-01-10 09:00:00
5:00 AM,77.0,68.0,74,30.04,6.2,East,16.1,-,N/A,,Partly Cloudy,80,2014-01-10 09:00:00
6:00 AM,77.0,68.0,74,30.04,6.2,East,13.8,-,N/A,,Partly Cloudy,80,2014-01-10 10:00:00
7:00 AM,77.0,68.0,74,30.06,6.2,East,13.8,-,N/A,,Partly Cloudy,80,2014-01-10 11:00:00
8:00 AM,77,67,65,30.10,25,East,17.3,,,,,100,2014-01-10 12:00:00
8:00 AM,77.0,66.2,69,30.09,6.2,East,16.1,-,N/A,,Mostly Cloudy,90,2014-01-10 12:00:00
9:00 AM,78.8,68.0,69,30.12,6.2,East,10.4,-,N/A,,Scattered Clouds,90,2014-01-10 13:00:00
10:00 AM,78.8,68.0,69,30.12,6.2,ENE,20.7,-,N/A,,Scattered Clouds,70,2014-01-10 14:00:00
11:00 AM,78,69,67,30.12,6,ENE,16.1,,,Rain,Light Rain Showers,70,2014-01-10 15:00:00
11:00 AM,78.8,68.0,69,30.09,6.2,ENE,16.1,-,N/A,Rain,Light Rain Showers,70,2014-01-10 15:00:00
12:00 PM,78.8,66.2,65,30.09,6.2,ENE,17.3,-,N/A,,Mostly Cloudy,70,2014-01-10 16:00:00
1:00 PM,82.4,66.2,58,30.04,6.2,East,17.3,-,N/A,,Scattered Clouds,80,2014-01-10 17:00:00
2:00 PM,82,65,47,30.04,16,ENE,16.1,,,,Partly Cloudy,70,2014-01-10 18:00:00
2:00 PM,82.4,64.4,54,30.04,6.2,ENE,16.1,-,N/A,,Scattered Clouds,70,2014-01-10 18:00:00
3:00 PM,82.4,64.4,54,30.01,6.2,ENE,13.8,-,N/A,,Scattered Clouds,60,2014-01-10 19:00:00
4:00 PM,80.6,66.2,61,30.01,6.2,ENE,13.8,-,N/A,,Partly Cloudy,70,2014-01-10 20:00:00
5:00 PM,80,65,52,30.02,16,ENE,15.0,,,,Scattered Clouds,70,2014-01-10 21:00:00
5:00 PM,80.6,66.2,61,30.01,6.2,ENE,15.0,-,N/A,,Partly Cloudy,70,2014-01-10 21:00:00
6:00 PM,78.8,66.2,65,30.04,6.2,ENE,12.7,-,N/A,,Partly Cloudy,70,2014-01-10 22:00:00
7:00 PM,78.8,64.4,61,30.06,6.2,ENE,12.7,-,N/A,,Partly Cloudy,70,2014-01-10 23:00:00
8:00 PM,78,63,51,30.08,16,East,15.0,,,,Partly Cloudy,80,2014-01-11 00:00:00
8:00 PM,78.8,62.6,57,30.06,6.2,East,15.0,-,N/A,,Partly Cloudy,80,2014-01-11 00:00:00
9:00 PM,77.0,68.0,74,30.09,6.2,ENE,15.0,-,N/A,Rain,Rain,70,2014-01-11 01:00:00
10:00 PM,77.0,68.0,74,30.09,6.2,ENE,13.8,-,N/A,,Scattered Clouds,70,2014-01-11 02:00:00
11:00 PM,76,68,70,30.10,9,East,11.5,,,,Partly Cloudy,80,2014-01-11 03:00:00
11:00 PM,77.0,68.0,74,30.09,6.2,ENE,11.5,-,N/A,,Scattered Clouds,60,2014-01-11 03:00:00